Wind from 102 at 7 knots gusting 13

Air temperature 21.7° C
Dewpoint 18.6° C

Last reported at 2014-Apr-20 14:50 UTC.
Time now 2014-Apr-20 15:59 UTC

Location: N 27°36' W 097°14'.
View on Google Maps.

See reports from other nearby stations

Tides Stations Pressure Air Temp Water Temp Dewpoint Dewpoint depression Visibility Wind Speed Wind Dir Waves Ship positions

  
sailing weather and tide predictions

DW4931 Corpus Christi TX US weather

date/time (UTC)wind fromknots sea level pressurealtimeterstation pressurevisibilityair tempwater tempwave heightnotes
2014-Apr-20 14:50 102 7 gusting 13 21.7
2014-Apr-20 14:35 075 7 gusting 17 21.7
2014-Apr-20 14:20 080 7 gusting 13 21.7
2014-Apr-20 14:05 104 8 gusting 13 21.1
2014-Apr-20 13:50 092 7 gusting 16 21.1
2014-Apr-20 13:35 083 6 gusting 13 20.6
2014-Apr-20 13:20 085 5 gusting 12 20.6
2014-Apr-20 13:05 087 6 gusting 11 20.0
2014-Apr-20 12:49 086 6 gusting 11 20.0
2014-Apr-20 12:34 086 6 gusting 11 20.0
2014-Apr-20 12:19 075 6 gusting 11 19.4
2014-Apr-20 12:05 079 6 gusting 9 19.4
2014-Apr-20 11:49 067 5 gusting 9 19.4
2014-Apr-20 11:35 072 5 gusting 9 19.4
2014-Apr-20 11:19 078 6 gusting 10 19.4
2014-Apr-20 11:04 071 6 gusting 10 19.4
2014-Apr-20 10:49 068 6 gusting 12 19.4
2014-Apr-20 10:35 076 6 gusting 10 19.4
2014-Apr-20 10:19 083 6 gusting 12 19.4
2014-Apr-20 10:04 088 6 gusting 12 19.4
2014-Apr-20 09:50 076 5 gusting 9 19.4
2014-Apr-20 09:34 084 6 gusting 12 19.4
2014-Apr-20 09:19 094 6 gusting 11 19.4
2014-Apr-20 09:04 078 7 gusting 12 19.4
2014-Apr-20 08:49 078 6 gusting 12 19.4
2014-Apr-20 08:34 088 6 gusting 12 19.4
2014-Apr-20 08:19 069 6 gusting 12 19.4
2014-Apr-20 08:04 082 6 gusting 12 19.4
2014-Apr-20 07:50 094 7 gusting 13 19.4
2014-Apr-20 07:34 070 6 gusting 10 19.4
2014-Apr-20 07:19 099 6 gusting 12 19.4
2014-Apr-20 07:04 098 7 gusting 12 19.4
2014-Apr-20 06:49 090 6 gusting 11 19.4
2014-Apr-20 06:34 082 6 gusting 12 19.4
2014-Apr-20 06:19 070 6 gusting 11 19.4
2014-Apr-20 06:04 087 6 gusting 9 19.4
2014-Apr-20 05:49 092 6 gusting 9 19.4
2014-Apr-20 05:34 088 5 gusting 10 19.4
2014-Apr-20 05:19 082 6 gusting 10 19.4
2014-Apr-20 05:04 079 4 gusting 9 19.4
2014-Apr-20 04:49 086 6 gusting 13 19.4
2014-Apr-20 04:34 061 5 gusting 9 19.4
2014-Apr-20 04:19 078 6 gusting 11 19.4
2014-Apr-20 04:04 088 5 gusting 10 19.4
2014-Apr-20 03:49 096 5 gusting 11 19.4
2014-Apr-20 03:34 092 6 gusting 11 19.4
2014-Apr-20 03:19 069 6 gusting 12 19.4
2014-Apr-20 03:04 094 6 gusting 10 19.4
2014-Apr-20 02:49 048 5 gusting 11 19.4
2014-Apr-20 02:34 081 5 gusting 12 19.4
2014-Apr-20 02:19 103 6 gusting 11 20.0
2014-Apr-20 02:04 071 5 gusting 9 20.0
2014-Apr-20 01:49 098 6 gusting 12 20.0
2014-Apr-20 01:34 077 6 gusting 9 20.0
2014-Apr-20 01:19 090 6 gusting 10 20.0
2014-Apr-20 01:04 070 5 gusting 9 20.0
2014-Apr-20 00:49 092 5 gusting 10 20.0
2014-Apr-20 00:34 108 6 gusting 9 20.0
2014-Apr-20 00:19 094 6 gusting 10 20.6
2014-Apr-20 00:04 062 6 gusting 10 20.6
2014-Apr-19 23:49 085 6 gusting 11 21.1
2014-Apr-19 23:34 094 6 gusting 11 21.1
2014-Apr-19 23:19 062 6 gusting 11 21.1
2014-Apr-19 23:04 067 6 gusting 11 21.7
2014-Apr-19 22:49 102 6 gusting 12 21.7
2014-Apr-19 22:34 059 8 gusting 13 21.7
2014-Apr-19 22:19 067 8 gusting 13 21.7
2014-Apr-19 22:04 102 7 gusting 16 22.2
2014-Apr-19 21:49 043 9 gusting 16 21.7
2014-Apr-19 21:34 095 8 gusting 16 21.7
2014-Apr-19 21:19 061 8 gusting 13 22.2
2014-Apr-19 21:04 061 10 gusting 16 21.7
2014-Apr-19 20:49 077 9 gusting 16 22.2
2014-Apr-19 20:34 077 8 gusting 17 22.2
2014-Apr-19 20:19 083 7 gusting 12 22.2
2014-Apr-19 20:04 072 8 gusting 13 22.2
2014-Apr-19 19:49 070 7 gusting 13 22.2
2014-Apr-19 19:34 081 7 gusting 13 22.2
2014-Apr-19 19:19 064 9 gusting 13 22.2
2014-Apr-19 19:04 077 9 gusting 16 22.2
2014-Apr-19 18:49 055 6 gusting 16 22.2
2014-Apr-19 18:33 084 7 gusting 13 22.2
2014-Apr-19 18:18 104 7 gusting 13 22.2
2014-Apr-19 18:03 090 8 gusting 12 21.7
2014-Apr-19 17:48 066 7 gusting 13 21.7
2014-Apr-19 17:33 073 6 gusting 13 21.7
2014-Apr-19 17:18 080 7 gusting 13 21.7
2014-Apr-19 17:03 055 6 gusting 12 21.1
2014-Apr-19 16:48 080 6 gusting 11 21.1
2014-Apr-19 16:33 073 7 gusting 13 21.1
2014-Apr-19 16:18 071 6 gusting 12 21.1
2014-Apr-19 16:03 073 8 gusting 12 20.6
2014-Apr-19 15:48 085 7 gusting 12 20.6
2014-Apr-19 15:33 072 7 gusting 11 20.6
2014-Apr-19 15:18 073 6 gusting 9 20.6
2014-Apr-19 15:03 064 5 gusting 9 20.6
2014-Apr-19 14:48 071 5 gusting 9 20.6
2014-Apr-19 14:33 048 6 gusting 9 20.0
2014-Apr-19 14:18 088 5 gusting 9 20.0
2014-Apr-19 14:03 079 4 gusting 8 19.4
2014-Apr-19 13:48 042 5 gusting 7 19.4
2014-Apr-19 13:33 051 4 gusting 6 19.4
2014-Apr-19 13:18 081 4 gusting 6 18.9
2014-Apr-19 13:03 057 3 gusting 5 18.3
2014-Apr-19 12:48 052 1 gusting 4 18.3
2014-Apr-19 12:33 056 0 gusting 2 17.8
2014-Apr-19 12:18 065 0 gusting 1 17.2
2014-Apr-19 12:03 065 16.7
2014-Apr-19 11:48 073 16.7
2014-Apr-19 11:33 073 16.1
2014-Apr-19 11:18 073 15.6
2014-Apr-19 11:03 073 16.1
2014-Apr-19 10:48 073 16.1
2014-Apr-19 10:33 073 16.7
2014-Apr-19 10:18 073 16.7
2014-Apr-19 10:03 073 16.7
2014-Apr-19 09:48 073 17.2
2014-Apr-19 09:33 073 17.2
2014-Apr-19 09:18 073 17.2
2014-Apr-19 09:03 071 17.2
2014-Apr-19 08:48 077 17.8
2014-Apr-19 08:32 075 0 gusting 3 17.8
2014-Apr-19 08:17 096 1 gusting 5 17.8
2014-Apr-19 08:02 079 0 gusting 5 17.8
2014-Apr-19 07:47 083 0 gusting 6 18.3
2014-Apr-19 07:32 077 1 gusting 6 18.3
2014-Apr-19 07:17 090 3 gusting 5 18.3
2014-Apr-19 07:02 069 1 gusting 6 18.3
2014-Apr-19 06:47 080 3 gusting 6 18.3
2014-Apr-19 06:32 068 3 gusting 5 18.3
2014-Apr-19 06:17 075 1 gusting 6 18.3
2014-Apr-19 06:02 084 1 gusting 6 18.3
2014-Apr-19 05:47 094 2 gusting 6 18.3
2014-Apr-19 05:32 094 0 gusting 4 18.3
2014-Apr-19 05:17 089 0 gusting 4 18.3
2014-Apr-19 05:02 092 18.3
2014-Apr-19 04:47 092 18.3
2014-Apr-19 04:32 081 1 gusting 4 18.3
2014-Apr-19 04:17 095 2 gusting 5 18.3
2014-Apr-19 04:02 075 3 gusting 7 18.3
2014-Apr-19 03:47 082 3 gusting 8 18.3
2014-Apr-19 03:32 092 3 gusting 6 18.3
2014-Apr-19 03:17 101 4 gusting 7 18.3
2014-Apr-19 03:02 084 4 gusting 7 18.3
2014-Apr-19 02:47 093 2 gusting 7 18.3
2014-Apr-19 02:32 099 2 gusting 6 18.9
2014-Apr-19 02:17 082 2 gusting 6 18.9
2014-Apr-19 02:02 111 3 gusting 8 18.9
2014-Apr-19 01:47 086 2 gusting 6 18.9
2014-Apr-19 01:32 090 3 gusting 8 18.9
2014-Apr-19 01:17 113 2 gusting 6 18.9
2014-Apr-19 01:02 103 2 gusting 8 18.9
2014-Apr-19 00:47 066 3 gusting 9 18.9
2014-Apr-19 00:32 077 4 gusting 8 19.4
2014-Apr-19 00:17 074 6 gusting 9 19.4
2014-Apr-19 00:02 092 5 gusting 9 19.4
2014-Apr-18 23:47 073 5 gusting 11 19.4
2014-Apr-18 23:32 090 6 gusting 11 20.0
2014-Apr-18 23:17 100 6 gusting 12 20.0
2014-Apr-18 23:02 092 6 gusting 13 20.6
2014-Apr-18 22:47 078 6 gusting 13 20.6
2014-Apr-18 22:32 088 7 gusting 13 20.6
2014-Apr-18 22:17 088 7 gusting 13 20.6
2014-Apr-18 22:02 079 7 gusting 13 20.6
2014-Apr-18 21:47 077 9 gusting 13 20.6
2014-Apr-18 21:32 072 7 gusting 13 20.6
2014-Apr-18 21:17 074 10 gusting 13 21.1
2014-Apr-18 21:02 081 7 gusting 17 20.6
2014-Apr-18 20:47 057 8 gusting 16 21.1
2014-Apr-18 20:32 075 10 gusting 16 21.1
2014-Apr-18 20:17 096 12 gusting 18 20.6
2014-Apr-18 20:02 039 11 gusting 17 20.6
2014-Apr-18 19:47 090 11 gusting 19 20.6
2014-Apr-18 19:32 073 12 gusting 18 21.1
2014-Apr-18 19:17 052 11 gusting 18 20.6
2014-Apr-18 19:02 048 12 gusting 16 21.1
2014-Apr-18 18:47 066 10 gusting 18 20.6
2014-Apr-18 18:32 077 12 gusting 16 20.6
2014-Apr-18 18:17 038 12 gusting 17 20.6
2014-Apr-18 18:02 062 11 gusting 19 20.6
2014-Apr-18 17:47 077 11 gusting 18 20.6
2014-Apr-18 17:32 058 10 gusting 15 20.6
2014-Apr-18 17:17 048 10 gusting 17 20.6
2014-Apr-18 17:02 088 12 gusting 17 20.6
2014-Apr-18 16:47 050 11 gusting 16 20.0
2014-Apr-18 16:32 040 11 gusting 15 20.6
2014-Apr-18 16:17 025 13 gusting 19 20.0
2014-Apr-18 16:02 068 10 gusting 17 20.0
2014-Apr-18 15:47 068 11 gusting 17 19.4
2014-Apr-18 15:32 052 10 gusting 16 19.4
2014-Apr-18 15:17 033 9 gusting 13 19.4
2014-Apr-18 15:02 029 9 gusting 13 18.9